Sigfox identifier Datetime Temperature Humidity SNR
003BC86A 2018-10-09 08:56:24 21 40 21.8
003BC86A 2018-10-09 07:51:04 21 40 21.7
003BC86A 2018-10-09 06:45:46 21 39 21.7
003BC86A 2018-10-09 05:40:26 21 39 21.7
003BC86A 2018-10-09 04:35:07 21 39 21.7
003BC86A 2018-10-09 01:19:12 21 38 21.5
003BC86A 2018-10-09 00:13:51 21 37 20.1
003BC86A 2018-10-08 23:08:32 21 37 18
003BC86A 2018-10-08 22:03:14 21.1 37 18.2
003BC86A 2018-10-08 20:57:55 21.1 37 18.2
003BC86A 2018-10-08 19:52:33 21.2 37 18.1
003BC86A 2018-10-08 18:47:11 21.2 36 18.2
003BC86A 2018-10-08 17:41:51 21.2 36 18.1
003BC86A 2018-10-08 16:36:30 21.2 36 18.1
003BC86A 2018-10-08 14:25:48 21 35 18
003BC86A 2018-10-08 13:20:26 21 35 18
003BC86A 2018-10-08 12:15:05 20.9 35 18
003BC86A 2018-10-08 07:53:53 20.6 33 13.8
003BC86A 2018-10-08 06:48:35 20.6 34 13.8
003BC86A 2018-10-08 05:43:16 20.6 34 13.6
003BC86A 2018-10-08 04:38:00 20.6 34 13.6
003BC86A 2018-10-08 03:32:40 20.7 35 13.8
003BC86A 2018-10-08 02:27:23 20.7 35 13.7
003BC86A 2018-10-08 01:22:05 20.8 36 13.6
003BC86A 2018-10-08 00:16:44 20.8 36 13.6
003BC86A 2018-10-07 23:11:22 20.8 37 13.5
003BC86A 2018-10-07 22:06:04 20.8 37 13.5
003BC86A 2018-10-07 21:00:49 20.8 37 13.9
003BC86A 2018-10-07 19:55:31 20.9 38 13.8
003BC86A 2018-10-07 18:50:15 20.8 38 13.3
003BC86A 2018-10-07 17:45:00 20.8 38 13.4
003BC86A 2018-10-07 16:39:42 20.8 38 13.5
003BC86A 2018-10-07 15:34:25 20.8 38 13.5
003BC86A 2018-10-07 14:29:04 20.8 38 13.1
003BC86A 2018-10-07 13:23:44 20.8 38 13.1
003BC86A 2018-10-07 12:18:23 20.8 38 12.9
003BC86A 2018-10-07 11:13:04 20.8 38 12.8
003BC86A 2018-10-07 10:07:44 20.9 38 12.9
003BC86A 2018-10-07 09:02:26 20.8 38 12.7
003BC86A 2018-10-07 07:57:08 20.9 38 12.7
003BC86A 2018-10-07 06:51:56 20.9 38 12.8
003BC86A 2018-10-07 05:46:35 20.9 39 12.6
003BC86A 2018-10-07 04:41:17 21 39 12.5
003BC86A 2018-10-07 02:30:39 21 39 12.3
003BC86A 2018-10-07 01:25:20 21 39 12.5
003BC86A 2018-10-07 00:20:01 21 39 13
003BC86A 2018-10-06 23:14:42 21 39 12.6
003BC86A 2018-10-06 22:09:25 21 39 12.5
003BC86A 2018-10-06 19:58:48 21 39 12.3
003BC86A 2018-10-06 18:53:32 21 39 12.1
003BC86A 2018-10-06 16:42:50 21.1 39 12.4
003BC86A 2018-10-06 15:37:32 21.1 39 12.5
003BC86A 2018-10-06 14:32:16 21.1 39 12
003BC86A 2018-10-06 13:26:51 21.1 39 12.1
003BC86A 2018-10-06 12:21:34 21 39 12.1
003BC86A 2018-10-06 11:16:17 21.1 39 12
003BC86A 2018-10-06 10:10:55 21 39 12.3
003BC86A 2018-10-06 09:05:36 21.1 39 13.4
003BC86A 2018-10-06 08:00:15 21.1 39 14.1
003BC86A 2018-10-06 06:54:56 21.2 40 14.9
003BC86A 2018-10-06 05:49:36 21.2 40 14.9
003BC86A 2018-10-06 04:44:13 21.2 40 14.8
003BC86A 2018-10-06 03:38:48 21.2 41 14.8
003BC86A 2018-10-06 02:33:27 21.3 41 15.1
003BC86A 2018-10-06 01:28:06 21.4 41 15.2
003BC86A 2018-10-06 00:22:44 21.4 42 15.4
003BC86A 2018-10-05 22:12:03 21.4 43 15.4
003BC86A 2018-10-05 21:06:46 21.5 43 15.9
003BC86A 2018-10-05 20:01:25 21.5 43 16.2
003BC86A 2018-10-05 18:56:06 21.7 44 16.2
003BC86A 2018-10-05 17:50:46 21.7 44 16
003BC86A 2018-10-05 16:45:24 21.7 45 16.1
003BC86A 2018-10-05 15:40:05 21.7 44 16.3
003BC86A 2018-10-05 14:34:39 21.7 44 16.4
003BC86A 2018-10-05 13:29:18 21.7 43 16.6
003BC86A 2018-10-05 12:24:00 21.4 41 16.5
003BC86A 2018-10-05 11:18:42 21.3 39 16.7
003BC86A 2018-10-05 10:13:29 21.2 36 16.9
003BC86A 2018-10-05 09:08:09 21 34 17
003BC86A 2018-10-05 08:02:54 20.8 32 17.3
003BC86A 2018-10-05 06:57:34 20.8 30 17.5
003BC86A 2018-10-05 05:52:10 20.8 30 17.5
003BC86A 2018-10-05 04:46:49 20.8 30 17.1
003BC86A 2018-10-05 03:41:30 20.9 30 16.7
003BC86A 2018-10-05 02:36:08 20.9 30 15.8
003BC86A 2018-10-05 01:30:50 21 31 16.1
003BC86A 2018-10-05 00:25:25 21.1 31 16.5
003BC86A 2018-10-04 23:20:04 21.2 31 16.9
003BC86A 2018-10-04 22:14:44 21.2 31 16.9
003BC86A 2018-10-04 21:09:20 21.2 31 17.1
003BC86A 2018-10-04 20:03:55 21.2 31 17.1
003BC86A 2018-10-04 18:58:31 21.3 31 17.8
003BC86A 2018-10-04 17:53:08 21.3 32 16.2
003BC86A 2018-10-04 16:47:45 21.4 32 8.5
003BC86A 2018-10-04 15:42:20 21.1 33 9.3
003BC86A 2018-10-04 14:36:55 20.4 45 0